Location: *
(37.5724°S, 58.0067°E)
Time: 02:43:11
(UTC+00:00)

X-37B - Pass Details

Date: 02 December 2020
Orbit: 385 x 390 km, 45.0° (Epoch: 20 January)

Event Time Altitude Azimuth Distance (km) Brightness Sun altitude
Exits shadow 23:14:43 27° 346° (NNW) 796 1.7 -14.5°
Maximum altitude 23:15:55 39° 35° (NE) 608 1.4 -14.3°
Drops below altitude 10° 23:18:59 10° 105° (ESE) 1,443 4.5 -13.8°
Sets 23:21:09 0° 113° (ESE) 2,306 6.0 -13.5°
